Cedar City, UT

6:46 PM MST on February 19, 2017 (GMT -0700)
Cedar City Regional

Weather History for KCDC - September, 2012

Change the Weather History Date:

Tuesday, September 11, 2012

  Actual Average Record
Temperature  
Mean Temperature 62 °F 64 °F  
Max Temperature 68 °F 81 °F 93 °F (1990)
Min Temperature 55 °F 47 °F 33 °F (2010)
Degree Days  
Heating Degree Days 3 3  
Month to date heating degree days 3 20  
Since 1 July heating degree days 3 29  
Cooling Degree Days 0 2  
Month to date cooling degree days 38 27  
Year to date cooling degree days 712 576  
Growing Degree Days 10 (Base 50)    
Moisture  
Dew Point 55 °F    
Average Humidity 82    
Maximum Humidity 100    
Minimum Humidity 63    
Precipitation  
Precipitation 0.49 in 0.02 in 0.57 in (1998)
Month to date precipitation 0.56 0.23  
Year to date precipitation 9.55 7.77  
Sea Level Pressure  
Sea Level Pressure 29.99 in    
Wind  
Wind Speed 6 mph (SW)    
Max Wind Speed 16 mph    
Max Gust Speed 22 mph    
Visibility 9 miles    
Events Rain    
T = Trace of Precipitation, MM = Missing Value Source: NWS Daily Summary

Daily Weather History Graph

Daily Weather History Graph

Search for Another Location

Airport or City:

Trip Planner

Search our weather history database for the weather conditions in past years. The results will help you decide how hot, cold, wet, or windy it might be!

Date:

Astronomy

Sep. 11, 2012 Rise Set
Actual Time 7:11 AM MDT 7:45 PM MDT
Civil Twilight 6:45 AM MDT 8:11 PM MDT
Nautical Twilight 6:13 AM MDT 8:42 PM MDT
Astronomical Twilight 5:41 AM MDT 9:14 PM MDT
Moon 2:36 AM MDT (9/11) 4:54 PM MDT (9/11)
Length of Visible Light 13h 26m
Length of Day
12h 34m
Waning Crescent, 21% of the Moon is Illuminated
Sep 11
Waning Crescent
Sep 15
New
Sep 22
First Quarter
Sep 29
Full
Oct 8
Last Quarter

Hourly Weather History & Observations

Time (MDT) Temp. Dew Point Humidity Pressure Visibility Wind Dir Wind Speed Gust Speed Precip Events Conditions
12:53 AM 64.0 °F 52.0 °F 65% 29.91 in 10.0 mi NW 10.4 mph - N/A   Overcast
1:53 AM 61.0 °F 54.0 °F 78% 29.93 in 10.0 mi NNE 6.9 mph - 0.00 in Rain Light Rain
2:53 AM 57.0 °F 54.0 °F 89% 29.93 in 10.0 mi Calm Calm - 0.00 in   Partly Cloudy
3:53 AM 55.0 °F 53.1 °F 93% 29.92 in 10.0 mi SW 4.6 mph - N/A   Partly Cloudy
4:53 AM 57.9 °F 54.0 °F 87% 29.91 in 10.0 mi Calm Calm - N/A   Overcast
5:53 AM 59.0 °F 54.0 °F 83% 29.90 in 10.0 mi Calm Calm - N/A   Overcast
6:53 AM 59.0 °F 54.0 °F 83% 29.90 in 10.0 mi Calm Calm - N/A   Overcast
7:53 AM 57.9 °F 54.0 °F 87% 29.93 in 10.0 mi NW 3.5 mph - 0.00 in   Overcast
8:28 AM 57.2 °F 53.6 °F 88% 30.15 in 8.0 mi WSW 8.1 mph - 0.01 in Rain Light Rain
8:53 AM 55.9 °F 54.0 °F 93% 29.99 in 3.0 mi South 8.1 mph - 0.11 in Rain Rain
9:06 AM 55.4 °F 53.6 °F 94% 30.16 in 2.0 mi South 4.6 mph - 0.09 in Rain Heavy Rain
9:37 AM 55.4 °F 53.6 °F 94% 30.17 in 4.0 mi SSE 4.6 mph - 0.23 in Rain Rain
9:53 AM 55.9 °F 54.0 °F 93% 29.99 in 6.0 mi SSE 3.5 mph - 0.25 in Rain Rain
10:53 AM 55.9 °F 55.0 °F 97% 30.01 in 10.0 mi SW 6.9 mph - 0.08 in Rain Light Rain
11:53 AM 57.0 °F 55.0 °F 93% 30.00 in 10.0 mi SW 5.8 mph - 0.04 in Rain Light Rain
12:53 PM 60.1 °F 55.9 °F 86% 29.96 in 10.0 mi Variable 3.5 mph - 0.01 in Rain Light Rain
1:53 PM 62.1 °F 55.9 °F 80% 29.98 in 10.0 mi SW 8.1 mph - 0.00 in   Clear
2:53 PM 64.9 °F 55.9 °F 73% 29.97 in 10.0 mi South 15.0 mph 19.6 mph N/A   Clear
3:53 PM 66.0 °F 54.0 °F 65% 29.95 in 10.0 mi SSW 13.8 mph 19.6 mph N/A   Partly Cloudy
4:53 PM 64.4 °F 53.6 °F 68% 30.11 in 10.0 mi SW 9.2 mph - N/A   Overcast
5:53 PM 63.0 °F 55.9 °F 78% 29.94 in 10.0 mi Calm Calm - 0.01 in   Partly Cloudy
6:53 PM 61.0 °F 55.0 °F 81% 29.94 in 10.0 mi SSW 8.1 mph - N/A   Clear
7:53 PM 60.1 °F 55.0 °F 83% 29.96 in 10.0 mi SW 5.8 mph - N/A   Clear
8:53 PM 59.0 °F 55.0 °F 87% 29.99 in 10.0 mi Calm Calm - N/A   Scattered Clouds
9:53 PM 59.0 °F 55.9 °F 90% 30.01 in 10.0 mi Calm Calm - N/A   Overcast
10:53 PM 59.0 °F 55.9 °F 90% 30.02 in 10.0 mi Calm Calm - N/A   Overcast
11:53 PM 59.0 °F 55.9 °F 90% 30.03 in 9.0 mi Calm Calm - 0.01 in Rain Light Rain